Miscellaneous Local Product
Issued by NWS North Platte, NE

Home | Current Version | Previous Version | Text Only | Print | Product List | Glossary On
Versions: 1 2 3 4 5 6 7 8 9 10 11 12 13 14 15 16 17 18 19 20 21 22 23 24 25 26 27 28 29 30 31 32 33 34 35 36 37 38 39 40 41 42 43 44 45 46 47 48 49 50
000
AXUS43 KLBF 170710
MISLBF


WESTERN AND NORTH CENTRAL NEBRASKA HOURLY WEATHER ROUNDUP
NATIONAL WEATHER SERVICE NORTH PLATTE NE
100 AM CST TUE JAN 17 2017

NOTE: "FAIR" INDICATES FEW OR NO CLOUDS BELOW 12,000 FEET WITH NO
SIGNIFICANT WEATHER AND/OR OBSTRUCTIONS TO VISIBILITY.

NOTE: STATIONS NOT REPORTING VARIABLES SUCH AS SKY/WEATHER OR
PRESSURE ARE PROVIDED BY RAWS AND APRS NETWORKS AND ARE NOT UNDER
NATIONAL WEATHER SERVICE QUALITY CONTROL.

...OBSERVATIONS IN AND NEAR THE EASTERN PANHANDLE OF NEBRASKA...

CITY           SKY/WX    TMP DP  RH WIND       PRES   REMARKS
PINE RIDGE     CLOUDY     5   3  91 E3        30.07F
CHADRON        CLOUDY    15   9  76 CALM      30.08F
ALLIANCE       CLOUDY    17  12  80 NW5       30.05S WCI  10
SIDNEY         CLOUDY    21  14  74 W12       30.07F WCI   9
CRESCENT LAKE    N/A     21  16  81 W7          N/A  WCI  12
$$

...OBSERVATIONS IN NORTHERN NEBRASKA AND FAR SOUTHERN SOUTH DAKOTA...

CITY           SKY/WX    TMP DP  RH WIND       PRES   REMARKS
WINNER         FAIR      18  13  80 W10       30.05F WCI   6
VALENTINE      CLOUDY    18  12  77 W5        30.06S WCI  11
THEDFORD       CLOUDY    26  19  73 NW7       30.05S WCI  19
AINSWORTH      CLOUDY    19  16  88 NW8       30.04S WCI   9
O`NEILL        CLOUDY    21  17  83 NW13G18   30.03F WCI   9
ORD            CLOUDY    23  17  78 NW8       30.03R WCI  14
BROKEN BOW     CLOUDY    26  18  71 NW15      30.04R WCI  14
VALENTINE NWR    N/A     21  14  75 NW9         N/A  WCI  11
BUTTE            N/A     18  14  84 W10         N/A  WCI   6
HALSEY           N/A     24  17  73 NW6         N/A  WCI  17
SARGENT          N/A     23  19  83 NW3         N/A
CHAMBERS         N/A     20  15  80 S5          N/A  WCI  14
EWING            N/A     20  17  86 NW7         N/A  WCI  11
$$

...OBSERVATIONS IN SOUTHWEST NEBRASKA AND FAR NORTHEAST COLORADO...

CITY           SKY/WX    TMP DP  RH WIND       PRES   REMARKS
WRAY           FAIR      27  23  86 W7        30.10S WCI  19
HOLYOKE        FAIR      32  19  59 NW12      30.08S WCI  23
IMPERIAL       CLEAR     28  21  75 W7        30.08R WCI  21
OGALLALA       CLOUDY    26  21  83 SW6       30.07S WCI  19
NORTH PLATTE   CLOUDY    22  17  81 NW6       30.06S WCI  14
MCCOOK         CLEAR     30  24  78 W8        30.07S WCI  22
LEXINGTON      CLEAR     28  22  81 W8        30.05S WCI  19
STAPLETON        N/A     24  19  80 CALM        N/A
GOTHENBURG       N/A     25  19  77 W6          N/A  WCI  18
CALLAWAY         N/A     24  20  84 CALM        N/A
$$

...OBSERVATIONS IN CENTRAL LINCOLN COUNTY AREA...

CITY           SKY/WX    TMP DP  RH WIND       PRES   REMARKS
N.P. AIRPORT   CLOUDY    22  17  81 NW6       30.06S WCI  14
N.P. DOWNTOWN    N/A     26  21  81 CALM        N/A
N.P. SOUTHEAST   N/A     24  19  82 CALM        N/A
N.P. HILLCREST   N/A     26  21  82 W5          N/A  WCI  20
$$

...SOME OBSERVATIONS FROM AROUND THE REGION...

CITY           SKY/WX    TMP DP  RH WIND       PRES   REMARKS
LARAMIE        FOG        3   1  91 CALM      30.07S VSB 1/4
CHEYENNE       CLOUDY    17   9  70 W9        30.06F WCI   6
DENVER         CLOUDY    27  20  75 SW10      30.08F WCI  17
AKRON          CLOUDY    19  13  77 W8        30.08S WCI   9
SCOTTSBLUFF    CLEAR     20  14  77 NW6       30.09F WCI  12
RAPID CITY     CLOUDY    19  10  68 CALM      30.05F
BISMARCK       CLOUDY     7   2  80 CALM      30.04F
PIERRE         CLEAR      8   5  87 W5        30.06S WCI   0
SIOUX FALLS    FOG       23  23 100 NW9       29.99S VSB 3/4 WCI  13
OMAHA          CLOUDY    33  29  85 NW17      29.97S FOG     WCI  22
GRAND ISLAND     N/A     26  24  92 NW13        N/A  WCI  15
KANSAS CITY    DRZL/FOG  34  33  96 NW10      29.94S VSB 1/2 WCI  26
WICHITA        DRIZZLE   35  34  96 NW9       30.05S WCI  28
OKLAHOMA CITY  PTCLDY    38  33  82 NW12      30.10R WCI  30
DALLAS         MOCLDY    48  41  76 N6        30.12R
AMARILLO       MOCLDY    35  32  88 NW8       30.14S WCI  29
DODGE CITY     PTCLDY    33  31  92 NW13      30.07F WCI  24
HAYS           PTCLDY    33  30  88 NW9       30.06S WCI  25
GOODLAND       CLOUDY    25  22  88 W9        30.09R WCI  15
$$




USA.gov is the U.S. government's official web portal to all federal, state and local government web resources and services.